Location: Ar Ranvel
(48.3000°N, 4.8833°W)
Time: 08:32:52
(UTC+00:00)

Meteor 2-10 Rocket - Pass Details

Date: 16 June 2021
Orbit: 733 x 885 km, 81.2° (Epoch: 26 July)

Event Time Altitude Azimuth Distance (km) Brightness Sun altitude
Rises 23:08:51 0° 346° (NNW) 3,242 8.6 -16.5°
Reaches altitude 10° 23:11:14 10° 345° (NNW) 2,293 7.3 -16.7°
Maximum altitude 23:16:21 72° 262° (W) 783 3.5 -16.9°
Enters shadow 23:18:57 28° 184° (S) 1,349 4.2 -17.0°
